Weather in Krasnoe

Russia / Lipetsk Oblast     53°13′24″N   38°43′47″E
temp.,
°C
wind,
m/s
gust,
m/s
humid.,
%
clouds,
%
prec.,
mm/h
press.,
hPa
HPBL,
m
14 august, sun
sun1400:00+20nne1175100 0.6 102011
03:00+20e1178100 0.6 102011
06:00+19ene3373100 0.0 102056
09:00+19ne2273100 0.1 102047
12:00+20e3573100 0.0 1020130
15:00+25e355466 0.0 1019505
18:00+24ene235875 0.0 1019281
21:00+21ne3560100 0.0 101994
15 august, mon
mon1500:00+19ene496621 0.0 1018162
03:00+17ene487149 0.0 1018146
06:00+18ene497192 0.0 1018222
09:00+21e476239 0.0 1018310
12:00+27e674346 0.0 10181253
15:00+29e673650 0.0 10171770
18:00+27e594333 0.0 1017396
21:00+23e4115334 0.0 1017197
16 august, tue
tue1600:00+22ese615515 0.0 1018420
03:00+20e6144658 0.0 1019343
06:00+18e5135099 0.0 1019319
09:00+22ese71144100 0.0 1020486
12:00+26e793462 0.0 10191151
15:00+28e782982 0.0 10181662
18:00+26e483895 0.0 1017310
21:00+22ene4747100 0.0 1017110
17 august, wed
wed1700:00+21ese245197 0.0 101778
03:00+21ene4651100 0.0 1016123
06:00+20ene375479 0.0 1016143
09:00+22e235695 0.0 101779
12:00+30e683154 0.0 10151538
15:00+29e7930100 0.0 10151303
18:00+27e61034100 0.0 1015564
21:00+25ene7143599 0.0 1015536
18 august, thu
thu1800:00+20ne51252100 0.2 1015296
03:00+19ene6125889 0.3 1015233
06:00+20ene6145328 0.0 1014316
09:00+24e7134389 0.0 1014609
12:00+28ene7932100 0.0 10131048
15:00+28e4734100 0.0 10131224
18:00+26ne41042100 0.0 1013337
21:00+23ne61346100 0.0 1012303